Location: Potawatomi Wildlife Park
(41.2308°N, 86.1050°W)
Time: 01:17:53
(UTC-04:00)

Daily predictions for brighter satellites

Satellite Brightness Start Highest point End
(mag) Time Altitude Azimuth Time Altitude Azimuth Time Altitude Azimuth
Cosmos 2123 Rocket 4.2 00:03:25 10° N 00:08:49 67° NNW 00:08:49 67° NNW
Lacrosse 5 3.6 00:09:47 10° NNW 00:13:24 27° NNE 00:13:24 27° NNE
CZ-2C R/B 3.9 00:13:49 10° NNE 00:16:47 35° NNE 00:16:47 35° NNE
H-2A R/B 4.5 00:19:45 12° W 00:20:08 12° W 00:22:08 10° WNW
CZ-4C R/B 3.7 00:26:51 30° NNE 00:26:51 30° NNE 00:29:50 10° NNE
ATLAS 5 CENTAUR R/B 3.3 00:26:33 10° NNW 00:31:12 42° NNE 00:31:12 42° NNE
USA 267 4.3 00:33:13 10° NE 00:39:17 42° NNW 00:45:20 10° W
BREEZE-M DEB (TANK) 4.3 00:26:20 10° WNW 00:44:24 64° WSW 00:44:24 64° WSW
USA 234 4.2 01:15:12 39° WNW 01:15:12 39° WNW 01:19:10 10° NW
ADEOS Rocket 4.2 01:09:34 10° NNE 01:14:09 39° NE 01:14:09 39° NE
Cosmos 1943 Rocket 3.8 01:10:58 10° NNW 01:13:38 30° NNW 01:13:38 30° NNW
Mayak 1.8 01:14:08 10° NNE 01:14:37 13° NNE 01:14:37 13° NNE
Cosmos 2369 Rocket 4.3 01:35:07 10° NW 01:37:01 20° NW 01:37:01 20° NW
CZ-4C R/B 4.4 02:11:58 17° NW 02:13:31 19° NNW 02:17:46 10° NNE
ATLAS 5 CENTAUR R/B 4.5 02:11:24 10° NW 02:12:44 17° WNW 02:12:44 17° WNW
Resurs 1-4 Rocket 4.5 02:30:11 10° NE 02:32:02 14° ENE 02:32:02 14° ENE
COSMOS 2406 4.3 03:13:29 38° NNW 03:13:29 38° NNW 03:17:32 10° NNE
Cosmos 2034 Rocket 4.2 03:17:52 67° NNE 03:17:52 67° NNE 03:23:15 10° N
Cosmos 2278 4.4 03:13:39 10° NNW 03:18:44 51° NE 03:18:44 51° NE
Cosmos 1980 Rocket 4.1 03:21:45 10° N 03:26:24 26° NE 03:31:03 10° ESE
Cosmos 1607 4.2 03:29:40 66° E 03:29:40 66° E 03:35:35 10° NE
Cosmos 1697 Rocket 3.6 03:24:38 10° NNW 03:30:04 45° ENE 03:31:12 40° E
CZ-2D R/B 2.9 03:25:27 10° NNE 03:30:01 47° ENE 03:30:01 47° ENE
Cosmos 1092 Rocket 4.3 03:26:00 10° N 03:32:08 58° E 03:32:43 56° ESE
Cosmos 2082 Rocket 2.7 03:35:02 52° ENE 03:35:02 52° ENE 03:39:49 10° NNE
Lacrosse 4 Rocket 3.2 03:30:21 10° N 03:33:35 32° NNE 03:33:35 32° NNE
SL-16 R/B 2.6 03:34:38 70° E 03:34:58 72° ENE 03:41:14 10° N
Cosmos 1867 4.4 03:31:10 10° NNW 03:36:30 49° NE 03:37:36 43° E
Meteor 1-15 Rocket 4.4 03:36:34 10° N 03:42:20 74° ENE 03:42:20 74° ENE
ARIANE 5 R/B 3.5 03:38:43 10° NNE 03:43:38 41° E 03:43:38 41° E
Iridium 4 Rocket 4.4 03:47:03 38° NE 03:47:03 38° NE 03:50:01 10° NNE
SL-08 R/B 4.3 03:47:36 42° N 03:47:36 42° N 03:50:50 10° NNW
Cosmos 967 Rocket 4.4 03:40:18 10° NNW 03:46:47 83° ENE 03:47:14 77° ESE
IRS-1C 4.3 03:42:47 10° NNE 03:47:36 67° ENE 03:47:36 67° ENE
ADEOS II 4.1 03:58:02 10° NE 04:02:00 21° E 04:04:45 15° SE
Cosmos 1656 4.3 03:59:10 10° NNW 04:03:11 44° NW 04:03:11 44° NW
IRS-1D 3.5 04:00:50 10° NNE 04:05:48 82° NE 04:05:48 82° NE
AQUA 4.5 04:06:32 10° N 04:10:13 46° NNW 04:10:13 46° NNW
Nadezhda 4 Rocket 4.4 04:05:59 10° NNW 04:11:01 44° WNW 04:11:01 44° WNW
NPP 4.2 04:07:44 10° N 04:12:25 45° NW 04:12:25 45° NW
Resurs 1-4 Rocket 2.1 04:08:11 10° N 04:13:07 65° NW 04:13:07 65° NW
Cosmos 1833 Rocket 2.7 04:14:17 62° WNW 04:14:18 62° WNW 04:19:55 10° NNE
Helios 1A Rocket 3.4 04:15:08 10° NNE 04:18:53 57° ENE 04:18:53 57° ENE
Cosmos 1634 Rocket 3.8 04:18:31 66° SW 04:19:24 78° W 04:25:40 10° N
Lacrosse 5 rocket 2.0 04:21:36 52° N 04:21:36 52° N 04:24:59 10° NE
Cosmos 1606 Rocket 3.8 04:25:20 10° N 04:29:38 64° E 04:30:10 58° ESE
Cosmos 2360 4.2 04:24:31 10° NNW 04:30:14 78° ENE 04:35:55 10° SSE
H-2A R/B 4.1 04:27:03 10° N 04:29:28 24° NW 04:29:28 24° NW
Cosmos 2228 4.0 04:31:01 10° N 04:35:07 43° ENE 04:37:29 22° SE
Cosmos 2279 Rocket 4.0 04:32:47 41° S 04:35:10 84° E 04:41:28 10° N
Cosmos 371 Rocket 4.4 04:36:06 30° NW 04:36:06 30° NW 04:40:05 10° N
Cosmos 1892 Rocket 3.8 04:39:59 51° SSE 04:40:55 66° E 04:45:18 10° NNE
Cosmos 2026 Rocket 4.0 04:39:00 10° NNW 04:45:17 62° W 04:47:24 41° SSW
Cosmos 1066 Rocket 4.1 04:44:18 53° SW 04:45:19 63° WNW 04:50:44 10° N
ATLAS 3B R/B 3.6 04:47:02 20° S 04:51:37 45° ESE 04:58:12 10° NE
COSMOS 2487 3.4 04:52:33 38° NNW 04:52:33 38° NNW 04:55:11 10° N
Cosmos 1025 Rocket 4.2 04:53:05 28° NW 04:53:05 28° NW 04:56:07 10° NNW
Cosmos 2208 Rocket 4.1 04:51:46 49° WSW 04:52:55 61° WNW 04:58:09 10° NNE
Cosmos 1763 Rocket 3.7 04:53:30 32° S 04:55:56 67° ESE 05:01:13 10° NNE
Timation 2 Rocket 4.3 04:52:47 25° S 04:56:13 59° ESE 05:02:04 10° NNE
Cosmos 1898 Rocket 3.4 04:58:20 10° NNW 05:03:33 71° WSW 05:08:44 10° S
UNKNOWN OBJECT B 3.1 05:06:22 10° N 05:10:04 43° WNW 05:10:18 42° W
CZ-2D R/B 3.5 05:06:18 10° NNW 05:10:22 22° WNW 05:11:21 21° WNW
USA 215 3.3 05:03:51 10° NE 05:10:24 78° SE 05:14:17 27° SW
Cosmos 1980 Rocket 2.3 05:05:16 10° NW 05:10:38 48° WSW 05:15:16 14° S
Cosmos 1655 Rocket 4.1 05:05:13 10° NNW 05:11:26 58° W 05:16:05 19° SSW
Lacrosse 4 Rocket 3.8 05:09:22 10° NW 05:09:50 12° WNW 05:09:50 12° WNW
Okean O Rocket 4.2 05:10:01 10° NE 05:13:01 18° E 05:15:59 10° SE
Cosmos 1697 Rocket 3.8 05:09:09 10° NW 05:12:50 25° W 05:12:50 25° W
Cosmos 1937 Rocket 3.3 05:11:49 10° NNW 05:17:01 75° WSW 05:22:08 10° SSE
Cosmos 2082 Rocket 3.6 05:16:53 19° W 05:18:45 23° NW 05:23:09 10° N
SL-16 R/B 4.0 05:19:43 18° W 05:19:43 18° W 05:23:14 10° NW
Cosmos 2266 Rocket 4.0 05:14:01 10° N 05:20:06 85° E 05:26:16 10° S
Cosmos 858 Rocket 4.4 05:15:26 10° NNW 05:20:34 61° WSW 05:25:39 10° S
SL-16 R/B 2.5 05:15:20 10° NNW 05:21:01 69° ENE 05:26:39 10° SSE
Meteor 1-22 Rocket 4.5 05:15:57 10° NNW 05:21:43 51° W 05:26:15 15° SSW
ARIANE 5 R/B 3.8 05:18:17 10° N 05:22:31 26° WNW 05:23:58 23° W
DNEPR-1 R/B 4.4 05:29:30 15° S 05:32:43 45° ESE 05:37:01 10° NE
Cosmos 990 Rocket 4.1 05:30:30 10° NNW 05:35:28 50° WSW 05:40:26 10° S
Cosmos 2150 Rocket 4.0 05:31:20 10° NNW 05:36:47 70° WSW 05:42:11 10° S
Cosmos 1814 Rocket 4.2 05:34:05 23° SW 05:37:09 54° WNW 05:42:14 10° N
Cosmos 2322 Rocket 2.2 05:32:18 10° NNW 05:37:59 89° ENE 05:43:37 10° SSE
Cosmos 1842 3.8 05:36:28 27° SW 05:38:01 39° WNW 05:41:45 10° N
Cosmos 292 Rocket 3.7 05:36:09 15° SSW 05:40:11 89° WNW 05:45:01 10° NNE
Cosmos 1707 3.7 05:37:49 10° SSE 05:41:31 47° E 05:45:16 10° NNE
ADEOS II 2.4 05:36:53 10° N 05:41:55 47° WNW 05:45:42 17° SW
OAO 3 Rocket 4.5 05:41:40 19° SW 05:42:29 20° SSW 05:45:57 10° SSE
Cosmos 2298 Rocket 4.1 05:37:58 10° NNW 05:43:09 53° WSW 05:48:17 10° S
Cosmos 1953 2.4 05:39:14 10° N 05:43:20 83° E 05:47:24 10° S
USA 267 4.3 05:38:34 10° ESE 05:44:46 47° NNE 05:50:58 10° NW
PSLV R/B 4.0 05:44:18 10° NNE 05:48:11 70° ESE 05:51:56 10° S
PSLV R/B 3.4 05:45:01 10° N 05:49:14 75° WNW 05:53:24 10° SSW
USA 238 DEB 3.7 05:43:52 17° SW 05:49:25 72° NW 05:56:25 10° NNE
USA 238 3.7 05:43:57 16° SW 05:49:32 73° NW 05:56:31 10° NNE
Meteor 1-31 Rocket 4.3 05:47:56 10° NNE 05:51:33 37° E 05:55:08 10° SSE
Cosmos 1805 4.3 05:51:31 10° NNW 05:54:46 25° W 05:57:01 15° SW
Cosmos 1812 Rocket 3.6 05:50:54 10° N 05:55:24 88° W 05:59:52 10° S
Cosmos 2058 Rocket 4.2 05:52:17 10° NW 05:55:52 25° W 05:58:41 14° SW
Cosmos 1378 3.0 05:53:42 10° SSW 05:57:25 75° W 06:01:11 10° N
Cosmos 1602 Rocket 3.7 05:55:58 10° SSW 06:00:12 53° W 06:04:27 10° N
Lacrosse 5 rocket 3.6 05:58:19 10° WNW 06:00:45 15° NNW 06:03:07 10° NNE
CZ-4B R/B 4.1 05:55:26 10° NNE 06:00:54 53° E 06:06:13 10° S
Cosmos 44 3.6 05:58:18 10° NW 06:03:25 53° WSW 06:08:37 10° SSE
CRYOSAT 2 4.5 06:01:23 10° S 06:06:13 83° E 06:11:06 10° N
Cosmos 1758 3.9 06:04:08 10° NNW 06:07:45 34° W 06:11:21 10° SSW
Cosmos 841 Rocket 4.1 06:05:16 12° SW 06:09:41 38° WNW 06:14:33 10° N
BREEZE-M R/B 3.9 06:09:00 11° W 06:12:24 52° NNW 06:19:30 10° ENE
Cosmos 1626 Rocket 4.3 06:09:43 10° SW 06:13:37 33° WNW 06:17:33 10° N
Cosmos 2322 4.4 06:11:10 10° NNW 06:16:50 60° ENE 06:22:29 10° SE
CZ-4B DEB 4.3 06:13:03 10° NNE 06:18:39 89° ESE 06:24:11 10° SSW
Meteor 1-28 Rocket 3.1 06:16:43 10° S 06:20:26 79° WSW 06:24:12 10° NNW
Meteor 2-5 Rocket 4.0 06:16:49 10° S 06:22:19 73° E 06:27:53 10° NNE
Cosmos 44 Rocket 3.6 06:18:43 10° NW 06:23:41 50° WSW 06:28:41 10° S
SJ 16-02 1.4 06:19:37 10° NNW 06:23:58 59° WSW 06:28:18 10° S
CZ-4B R/B 3.6 06:22:01 10° N 06:26:00 38° WNW 06:29:46 10° SW
NOSS 3-2 (C) 3.5 06:20:37 10° SW 06:26:30 88° NW 06:33:05 10° NE
Meteor PRIRODA 3.6 06:27:01 10° N 06:30:41 68° WNW 06:34:20 10° SSW
